Погода Грозный

Погода Грозный : погода сейчас, прогноз погоды и архив. Всё, что Вы хотите узнать о погоде Грозный!

Поиск расширенной информации на нашем сайте:

Другие новости

Новости СМИ2

Главная страница сайта

Новости сайта

02.10.2013

Напоминаем, что на нашем новом сайте вы можете получить высокодетализированные прогнозы погоды по пунктам России, СНГ и мира (включающие важные для авиации метеовеличины, такие как направление и скорость ветра, видимость, явления погоды, количество и форма облачности, нижняя и верхняя граница облачности), а также ознакомиться с разнообразными материалами по авиационной метеорологии и подборкой полезных ссылок на эту тему.

Сайт Метеоцентр.Азия посвящён разработке технологий оптимизации авиаметеорологического обслуживания, включая проектирование и перспективное создание нескольких автоматизированных авиаметеорологических систем:
- система выпуска высокодетальных прогностических карт явлений погоды для нижнего воздушного пространства по России и ближнему зарубежью;
- система верификации прогнозов TAF (выпускаемых синоптиками официальных АМСГ РФ и ближнего зарубежья) и AUTOTAF (выпускаемых сайтом Метеоцентр.Азия) - выявление ошибок, онлайн-сопоставление с фактической погодой METAR, автоматическое внесение коррективов в прогнозы при резком отклонении фактической погоды от прогноза, подсчёт оправдываемости прогнозов по элементам и в целом;
- система обработки, анализа и отображения авиаметеорологической информации для применения провайдерами метеорологической информации.

Рекомендуем: Наружные отопительные котлы - газовые котлы будерус.

Погода Грозный - сегодня

Время (UTC), дата Ветер
(°,м/с) 
Видим.   Явления Облачность Т
(°С)
Тd
(°С)
f(%) Тe
(°С)
Pmin
(гПа)
dP
(гПа)
Po
(мм)
O2
(г/м3)
Тmin Tmax R s Состояние
почвы
21 21.03.17 230 (ЮЗ) 10 км    10/10 600 м 
[Sc]
+5.4 +1.2 74 +4  1015.2  0.6  738  291           
00 22.03.17 250 (З) 10 км    10/10 600 м 
[Sc]
+4.8 +0.4 73 +4  1015.9  0.6  738  292           
03 22.03.17 260 (З) 20000 м    10/10 600 м 
[Sc]
+4.9 -2 61 +3  1016.7  0.8  739  293  +4.6        влажная 
06 22.03.17 260 (З) 20000 м    9/0 средняя 
[Ac As]
+7 -3.4 47 +6  1016.3  -0.1  739  291           
09 22.03.17 290 (З) 20000 м    10/10 1000 м 
[Sc]
+10.2 -2.8 40 +10  1014.6  -1.5  730  284           
12 22.03.17 280 (З) 20000 м    10/10 1000 м 
[Sc]
+7.5 -0.7 56 +7  1015.1  0.5  738  289           
15 22.03.17 260 (З) 3{11}  4000 м  слаб. дождь  10/10 300 м 
[Ns]
+4.3 +2.1 86 +3  1018.1  2.7  740  293    +10.7  0.4     
18 22.03.17 240 (ЮЗ) 4000 м  слаб. дождь  10/10 300 м 
[Ns]
+4.1 +3.1 93 +4  1019.6  1.1  741  294           
21 22.03.17 260 (З) 4000 м  слаб. дождь  10/10 300 м 
[Ns]
+3.9 +3.1 95 +3  1019.2  -0.3  741  294           
00 23.03.17 220 (ЮЗ) 4000 м  слаб. дождь  10/10 300 м 
[Ns]
+4 +3.2 95 +4  1019  -0.2  741  294           
03 23.03.17 270 (З) 4000 м  слаб. дождь  10/10 300 м 
[Ns]
+4.2 +3.7 97 +5  1020.1  741  294  +3.5      влажная 
06 23.03.17 250 (З) 4000 м  слаб. дождь  10/10 300 м 
[Ns]
+3 +2.6 97 +4  1021.9  1.6  743  296  +2.3         
09 23.03.17 020 (С) 4000 м  слаб. дождь  10/10 300 м 
[Ns]
+1.1 +0.7 97 +2  1023.5  1.3  743  298           
12 23.03.17 200 (Ю) 4000 м  слаб. дождь  10/10 300 м 
[Ns]
+1.6 +1.3 98 +2  1024  0.7  744  298           
18 23.03.17 тихо ()   4000 м  дымка{дождь}  10/10 300 м 
[St]
+2.7 +2.5 99 +3  1026.1  0.8  746  297           
21 23.03.17 тихо ()   10 км    10/10 600 м 
[Sc]
+2.3 +1.8 96 +2  1026.7  0.4  746  298           
00 24.03.17 тихо ()   4000 м  дымка  10/10 300 м 
[St]
+2.4 +2 97 +2  1026.9  746  298           
03 24.03.17 тихо ()   4000 м  дымка  10/10 300 м 
[St]
+2.5 +2.2 98 +3  1027.5  0.8  747  298  +1.8    0.4    влажная 
06 24.03.17 тихо ()   20000 м    9/0 средняя 
[Ac As]
+5.2 +2.6 83 +5  1027.8  0.6  747  295           
09 24.03.17 040 (СВ) 20000 м    10/10 1000 м 
[Sc]
+7.4 +1.6 67 +8  1026.6  -1.1  746  292           
12 24.03.17 070 (В) 20000 м    10/10 1000 м 
[Sc]
+8.1 +2.3 67 +8  1025.4  -1.2  745  291           
15 24.03.17 070 (В) 20000 м    8/0 средняя 
[Ac lent]
+7.2 +2 69 +7  1025  -0.3  745  292    +8.9       
18 24.03.17 090 (В) 10 км    ясно 
+4.1 +1.8 85 +5  1024.8  -0.4  745  295           
21 24.03.17 тихо ()   10 км    ясно 
+1.9 +0.1 88 +2  1022.9  -2  743  297           
00 25.03.17 090 (В) 10 км    ясно 
-0.3 -0.6 98 1021.5  -1.8  742  299           
Время (UTC), дата Ветер
(°,м/с) 
Видим.   Явления Облачность Т
(°С)
Тd
(°С)
f(%) Тe
(°С)
Pmin
(гПа)
dP
(гПа)
Po
(мм)
O2
(г/м3)
Тmin Tmax R s Состояние
почвы

Для получения пояснительной информации подведите курсор к названию столбца.

ПОГОДА Грозный - архив

Всё, что Вы хотите узнать о погоде Грозный - удобно и подробно!

Выберите нужную дату (начиная с 1 января 2015* года) и нажмите кнопку "Найти".
Будут отображены архивные сводки погоды по пункту Грозный, начиная с указанной даты.


Отображать данные в формате CSV (для использования в таблицах Excel)


Внимание! Наш архив погоды предназначен исключительно для личного некоммерческого использования в познавательных целях. Если Вам необходимы официальные справки о состоянии погоды (для производственных, юридических, коммерческих и т.п. целей), обращайтесь в органы Росгидромета.

*Примечание: данная дата относится к архиву по метеостанциям СССР (Россия, СНГ, Балтия).
Архив по метеостанциям Зарубежной Европы и Азии (кроме Китая) хранится 10 дней, по другим регионам земного шара (Китай, Африка, Америка, Австралия, Океания) - 1 день.

Грозный - район местоположения метеостанции


Название, широта, долгота, высота метеостанции:
Грозный 43.3°ш. 45.7°д. 163 м над ур. моря [Российская Федерация]

Дополнительная информация

В oтличие oт бoльшинства пoгoдных сайтoв мы публикуем пoдрoбную метеoинфoрмацию в детальнoм прoфессиoнальнoм фoрмате.

Характеристики температуры и влажнoсти вoздуха измеряются на высoте 2 м в тени вдали oт зданий и деревьев.
Скoрoсть ветра измеряется на высoте 10 м (на урoвне рoста челoвека скoрoсть ветра ниже в 1.5-2 раза). Если метеoстанция нахoдится в гoрoде или в лесу, тo скoрoсть ветра занижена на 2-4 м/с пo сравнению с oткрытым местoм. Скoрoсть ветра над акватoриями крупных рек и oзёр, а также на вершинах хoлмoв на 2-5 м/с выше, чем в oбычных услoвиях.
Атмoсфернoе давление в разных тoчках местнoсти мoжет значительнo oтличаться oт давления на метеoстанции, в зависимoсти oт услoвий рельефа (при пoдъёме на 10 м давление пoнижается примернo на 1 мм рт.ст.).